Location: USNO
(38.9242°N, 77.0663°W)
Time: 03:47:04
(UTC-04:00)

Tiangong 1 - Pass Details

Date: 16 October 2017
Orbit: 292 x 319 km, 42.8° (Epoch: 22 October)

Event Time Altitude Azimuth Distance (km) Brightness Sun altitude
Rises 20:26:29 0° 274° (W) 2,033 6.2 -23.8°
Reaches altitude 10° 20:29:33 10° 235° (SW) 1,192 4.1 -24.4°
Enters shadow 20:29:43 10° 232° (SW) 1,171 4.0 -24.4°
